   Australia/NSW.  Observers H. Sato, N. Paul. 0.30-m f/9 reflector + CCD.
(W62) Comet Hunter Observatory2, New Ringgold  (N40.745185 W75.862390)
   US/Pennsylvania.  Observer J. Maikner. 0.30-m f/3.8 Riccardi-Honders + CCD.
(W68) ATLAS Chile, Rio Hurtado  (S30.471010 W70.764980)  Chile.  Observers L.
   Denneau, R. Siverd, J. Tonry, H. Weiland. Measurers L. Denneau, N.
   Erasmus, A. Fitzsimmons, J. Robinson, R. Siverd, J. Tonry, H. Weiland.
   0.5-m f/2.0 Schmidt + CCD.
(W86) Cerro Tololo-LCO B  (S30.167325 W70.804670)  Chile.  Observer J. D.
   Armstrong. 1.0-m f/8 Ritchey-Chrétien + CCD.
(X03) Observatoire SADR, Poroto  (S30.533914 W70.796390)  Chile.  Observers
   J. L. Virlichie, P. Traverse. 0.35-m f/4.7 Newtonian reflector + CCD.
(X09) Deep Random Survey, Rio Hurtado  (S30.526310 W70.853300)  Chile.
   Observers A. Schnabel, D. Ruhela. Measurer S. Deen. 0.43-m reflector +
   CMOS.
(X25) UBC Southern Observatory  (S30.526459 W70.853220)  Chile.
(X93) Munhoz Observatory  (S22.628912 W46.395300)  Brazil.  Observer A.
   Brossel. 0.30-m f/4.0 reflector + CMO.
(Y05) SONEAR Wykrota-CEAMIG, Serra da Piedade  (S19.824251 W43.690000)
   Brazil.  Observer C. Jacques. 0.45-m f/2.9 reflector + CMO.

Orbital elements:  A11z2Ek
   Perihelion 2026 May 13.536619 +/- 0.0101 TT = 12:52:43.9 (JD 2461174.036619)
Epoch 2026 Apr 16.0 TT = JDT 2461146.5                           AutoNEOCP
M 359.996628195 +/- 0.00033         (J2000 ecliptic)
n   0.000122448 +/- 1.22e-5         Peri.  344.835918 +/- 0.0027
a 401.6380331 +/- 26.2              Node   188.314997 +/- 0.0021
e   0.99277403 +/- 0.000477         Incl.  108.184742 +/- 0.0038
P8049.19127                H 14.26  G  0.15   U  5.1
q 2.902220843 +/- 0.000118    Q 800.3738454 +/- 52.9
From 102 observations 2026 Mar. 10-Apr. 16; mean residual 0".26
Residuals in arcseconds: 
260310 M22  .61-  .06+    260325 M22  .37+  .20-    260409 E62  .01-  .19+    
260310 M22  .83+  .40-    260326 M22  .21+  .13+    260409 E62  .01-  .02-    
260310 M22  .94-  .35+    260326 M22  .27+  .30+    260410 W62  .01+  .55+    
260312 X09  .94+  .06-    260327 W68  .63-  .04-    260410 W62  .26-  .52-    
260312 X09  .42+  .03-    260327 W68  .18+  .17-    260410 X03  .06+  .02+    
260312 X09  .16+  .30-    260327 W68  .82-  .56-    260410 X03  .04+  .09-    
260312 Q62  .06+  .08-    260327 W68  .15-  .13+    260410 X03  .10-  .03-    
260312 Q62  .28+  .05-    260328 W68  .29-  .40+    260411 W68  .14+  .11+    
260313 807  .07+  .45+    260328 W68  .01-  .13+    260411 W68  .19-  .14+    
260313 807  .08-  .06-    260328 W68  .17-  .19-    260411 W68  .39-  .43+    
260313 807  .05-  .03+    260328 W68  .27+  .18+    260411 W68  .44+  .20-    
260313 807  .20-  .01+    260330 W68  .16-  .08-    260411 X93  .10+  .09-    
260314 E23  .34-  .41+    260330 W68  .15+  .37+    260411 X93  .23+  .62-    
260314 E23  .27-  .14+    260330 W68  .38+  .31-    260411 X93  .60+  .13+    
260314 E23  .01-  .15-    260330 W68  .09+  .15+    260413 E62  .22-  .11+    
260316 E94  .10+  .04-    260330 Q62  .01+  .02+    260413 E62  .23+  .02-    
260316 E94  .03-  .04+    260330 Q62  .17-  .03-    260413 E62  .13+  .27-    
260316 E94  .19-  .09-    260330 Q62  .08-  .07-    260414 M21  .12+  .03+    
260321 W86  .11-  .07-    260330 Q62  .06-  .14-    260414 M21  .09+  .00     
260321 W86  .16-  .07-    260330 Q62  .16-  .20+    260415 I47  .06+  .00     
260321 W86  .13-  .05+    260331 Q62  .12+  .17-    260415 I47  .02-  .31+    
260321 W86  .07-  .05-    260331 Q62  .03-  .29-    260415 I52  .13-  .09-    
260321 W86  .11-  .07-    260406 X25  .06-  .26-    260415 I52  .09+  .36-    
260321 W86  .05-  .07-    260406 X25  .24-  .03+    260415 I52  .23-  .32-    
260321 W86  .11-  .07-    260406 X25  .21-  .07-    260415 I52  .43-  .23+    
260321 W86  .05-  .07-    260406 X25  .17-  .26-    260415 Y05  .10+  .13-    
260322 Y05  .15-  .09+    260406 X25  .14-  .25-    260416 Y05  .04+  .00     
260322 Y05  .12-  .07-    260408 Y05  .17+  .06-    260416 Y05  .16+  .04+    
260323 Y05  .02+  .01-    260408 Y05  .08+  .03-    260416 W68  .18+  .15-    
260325 W68  .39+  .20+    260408 Y05  .18+  .04+    260416 W68  .05+  .19-    
260325 W68  .12-  .12+    260408 W68  .38-  .49+    260416 W68  .15+  .26+    
260325 W68  .32+  .41-    260408 W68  .23-  .10+    260416 W68  .33-  .26+    
260325 W68  .02+  .18+    260408 W68  .69+  .36+    260416 E62  .03-  .36+    
260325 M22  .06-  .17+    260408 W68  .10+  .21-    260416 E62  .48-  .16-    

Ephemerides (geocentric):
Date (UTC) HH   RA             Dec           delta  r     elong  mag " sig PA
---- --------  ------------   ------------  ------ ------ -----  --- --------
2026 04 17 12  11 37 41.459   -32 00 29.74  2.0388 2.9140 144.4 18.8 .079  83
2026 04 17 13  11 37 37.836   -31 58 50.00  2.0389 2.9140 144.4 18.8 .080  83
2026 04 17 14  11 37 34.218   -31 57 10.25  2.0390 2.9139 144.3 18.8 .080  83
2026 04 17 15  11 37 30.605   -31 55 30.49  2.0390 2.9139 144.3 18.8 .081  83
2026 04 17 16  11 37 26.995   -31 53 50.71  2.0391 2.9139 144.3 18.8 .082  83
2026 04 17 17  11 37 23.391   -31 52 10.92  2.0392 2.9138 144.3 18.8 .083  84
2026 04 17 18  11 37 19.790   -31 50 31.11  2.0392 2.9138 144.3 18.8 .083  84
2026 04 17 19  11 37 16.194   -31 48 51.29  2.0393 2.9138 144.3 18.8 .084  84
2026 04 17 20  11 37 12.603   -31 47 11.46  2.0394 2.9137 144.2 18.8 .085  84
2026 04 17 21  11 37 09.015   -31 45 31.61  2.0395 2.9137 144.2 18.8 .086  84
2026 04 17 22  11 37 05.432   -31 43 51.75  2.0395 2.9136 144.2 18.8 .087  84
2026 04 17 23  11 37 01.854   -31 42 11.87  2.0396 2.9136 144.2 18.8 .087  84
2026 04 18 00  11 36 58.280   -31 40 31.98  2.0397 2.9136 144.2 18.8 .088  85
2026 04 18 01  11 36 54.710   -31 38 52.08  2.0398 2.9135 144.2 18.8 .089  85
2026 04 18 02  11 36 51.145   -31 37 12.17  2.0398 2.9135 144.1 18.8 .090  85
2026 04 18 03  11 36 47.584   -31 35 32.25  2.0399 2.9135 144.1 18.8 .090  85
2026 04 18 04  11 36 44.028   -31 33 52.31  2.0400 2.9134 144.1 18.8 .091  85
2026 04 18 05  11 36 40.475   -31 32 12.36  2.0401 2.9134 144.1 18.8 .092  85
2026 04 18 06  11 36 36.928   -31 30 32.39  2.0402 2.9134 144.1 18.8 .093  85
2026 04 18 07  11 36 33.384   -31 28 52.42  2.0402 2.9133 144.1 18.8 .094  85
2026 04 18 08  11 36 29.846   -31 27 12.43  2.0403 2.9133 144.0 18.8 .094  85
2026 04 18 09  11 36 26.311   -31 25 32.44  2.0404 2.9132 144.0 18.8 .095  86
2026 04 18 10  11 36 22.781   -31 23 52.43  2.0405 2.9132 144.0 18.8 .096  86
2026 04 18 11  11 36 19.255   -31 22 12.40  2.0406 2.9132 144.0 18.8 .097  86
2026 04 18 12  11 36 15.734   -31 20 32.37  2.0407 2.9131 144.0 18.8 .098  86
2026 04 18 13  11 36 12.217   -31 18 52.33  2.0407 2.9131 143.9 18.8 .098  86
2026 04 18 14  11 36 08.705   -31 17 12.28  2.0408 2.9131 143.9 18.8 .099  86
2026 04 18 15  11 36 05.197   -31 15 32.21  2.0409 2.9130 143.9 18.8 .100  86
2026 04 18 16  11 36 01.693   -31 13 52.14  2.0410 2.9130 143.9 18.8 .101  86
2026 04 18 17  11 35 58.194   -31 12 12.05  2.0411 2.9130 143.9 18.8 .102  87
2026 04 18 18  11 35 54.699   -31 10 31.96  2.0412 2.9129 143.9 18.8 .102  87
2026 04 18 19  11 35 51.208   -31 08 51.85  2.0413 2.9129 143.8 18.8 .103  87
2026 04 18 20  11 35 47.722   -31 07 11.74  2.0414 2.9128 143.8 18.8 .104  87
2026 04 18 21  11 35 44.241   -31 05 31.61  2.0415 2.9128 143.8 18.8 .105  87
2026 04 18 22  11 35 40.764   -31 03 51.47  2.0416 2.9128 143.8 18.8 .106  87
2026 04 18 23  11 35 37.291   -31 02 11.33  2.0417 2.9127 143.8 18.8 .107  87
2026 04 19 00  11 35 33.822   -31 00 31.18  2.0418 2.9127 143.7 18.8 .107  87
2026 04 19 01  11 35 30.358   -30 58 51.01  2.0419 2.9127 143.7 18.8 .108  87
2026 04 19 02  11 35 26.899   -30 57 10.84  2.0420 2.9126 143.7 18.8 .109  87
2026 04 19 03  11 35 23.444   -30 55 30.66  2.0421 2.9126 143.7 18.9 .110  88
2026 04 19 04  11 35 19.993   -30 53 50.47  2.0422 2.9126 143.7 18.9 .111  88
2026 04 19 05  11 35 16.547   -30 52 10.28  2.0423 2.9125 143.6 18.9 .112  88
2026 04 19 06  11 35 13.105   -30 50 30.07  2.0424 2.9125 143.6 18.9 .112  88
2026 04 19 07  11 35 09.667   -30 48 49.86  2.0425 2.9125 143.6 18.9 .113  88
2026 04 19 08  11 35 06.234   -30 47 09.63  2.0426 2.9124 143.6 18.9 .114  88
2026 04 19 09  11 35 02.805   -30 45 29.40  2.0427 2.9124 143.6 18.9 .115  88
2026 04 19 10  11 34 59.381   -30 43 49.17  2.0428 2.9124 143.5 18.9 .116  88
2026 04 19 11  11 34 55.961   -30 42 08.92  2.0429 2.9123 143.5 18.9 .117  88